カタログに戻る

CZ-3C DEB

運用中GTO
NORAD 40200·DEBRIS·🇨🇳 China

打ち上げ Feb 24, 2012 から Xichang Satellite Launch Center

Loading…

TLE

古いSource: Space-Track

元期: Sep 8, 2026, 03:27 UTC

1 40200U 12008K   26251.14381312 -.00000082  00000-0  00000-0 0  9997
2 40200  20.6841 231.0781 6978681 175.9268 196.3862  2.19220943100541

AllMySatでCZ-3C DEBをリアルタイム追跡

Download on the App Store